Location: Arbury
(52.2217°N, 0.1159°E)
Time: 19:53:08
(UTC+01:00)

ISS - Visible Passes

Search period start: 25 September 2017 00:00
Search period end: 05 October 2017 00:00
Orbit: 401 x 407 km, 51.6° (Epoch: 26 September)

Date Brightness Start Highest point End Pass type
(mag) Time Alt. Az. Time Alt. Az. Time Alt. Az.
26 Sep -1.4 21:01:51 10° SW 21:02:31 14° SSW 21:02:31 14° SSW visible
27 Sep -2.4 20:10:02 10° SSW 20:12:38 22° SSE 20:12:41 22° SE visible
28 Sep -1.8 19:18:35 10° S 19:20:29 15° SE 19:22:22 10° ESE visible
28 Sep -2.6 20:53:13 10° SW 20:55:20 33° SSW 20:55:20 33° SSW visible
29 Sep -3.1 20:01:05 10° SW 20:04:06 35° SSE 20:05:12 27° ESE visible
29 Sep -1.0 21:37:06 10° W 21:37:50 16° W 21:37:50 16° W visible
30 Sep -2.4 19:09:07 10° SSW 19:11:52 25° SSE 19:14:37 10° E visible
30 Sep -3.6 20:44:44 10° WSW 20:47:36 59° SW 20:47:36 59° SW visible
01 Oct -3.6 19:52:26 10° WSW 19:55:38 54° SSE 19:57:16 25° E visible
01 Oct -1.3 21:28:44 10° W 21:29:55 20° W 21:29:55 20° W visible
02 Oct -3.9 20:36:19 10° W 20:39:30 80° SSW 20:39:30 80° SSW visible
03 Oct -3.8 19:43:54 10° WSW 19:47:11 73° S 19:49:05 23° E visible
03 Oct -1.5 21:20:20 10° W 21:21:43 23° W 21:21:43 23° W visible
04 Oct -4.0 20:27:53 10° W 20:31:10 81° S 20:31:14 80° SSE visible
